2024/01/24 00:00:00, 9.2,-6.4
2024/01/24 00:10:00, 9.0,-6.4
2024/01/24 00:20:00, 8.9,-6.2
2024/01/24 00:30:00, 8.7,-6.1
2024/01/24 00:40:00, 9.0,-6.2
2024/01/24 00:50:00, 9.2,-6.1
2024/01/24 01:00:00, 9.3,-6.2
2024/01/24 01:10:00, 9.4,-6.1
2024/01/24 01:20:00, 9.3,-5.7
2024/01/24 01:30:00, 9.2,-6.0
2024/01/24 01:40:00, 9.2,-5.9
2024/01/24 01:50:00, 9.1,-6.2
2024/01/24 02:00:00, 9.6,-5.5
2024/01/24 02:10:00, 9.8,-5.9
2024/01/24 02:20:00, 9.7,-6.1
2024/01/24 02:30:00, 9.7,-6.0
2024/01/24 02:40:00, 9.7,-6.1
2024/01/24 02:50:00, 9.7,-6.0
2024/01/24 03:00:00, 9.7,-6.4
2024/01/24 03:10:00, 9.7,-6.1
2024/01/24 03:20:00, 9.7,-6.0
2024/01/24 03:30:00, 9.8,-6.0
2024/01/24 03:40:00,10.0,-6.1
2024/01/24 03:50:00, 9.9,-6.3
2024/01/24 04:00:00, 9.8,-6.4
2024/01/24 04:10:00, 9.9,-6.5
2024/01/24 04:20:00,10.1,-6.3
2024/01/24 04:30:00,10.1,-6.6
2024/01/24 04:40:00,10.4,-6.3
2024/01/24 04:50:00,10.4,-6.3
2024/01/24 05:00:00,10.4,-6.2
2024/01/24 05:10:00,10.2,-6.6
2024/01/24 05:20:00,10.2,-6.4
2024/01/24 05:30:00,10.2,-6.3
2024/01/24 05:40:00,10.1,-6.6
2024/01/24 05:50:00, 9.9,-6.9
2024/01/24 06:00:00, 9.8,-7.2
2024/01/24 06:10:00, 9.7,-7.2
2024/01/24 06:20:00, 9.5,-7.4
2024/01/24 06:30:00, 9.3,-7.4
2024/01/24 06:40:00, 9.2,-7.4
2024/01/24 06:50:00, 9.2,-7.3
2024/01/24 07:00:00, 9.1,-7.4
2024/01/24 07:10:00, 8.9,-7.3
2024/01/24 07:20:00, 8.9,-7.2
2024/01/24 07:30:00, 8.8,-7.0
2024/01/24 07:40:00, 8.7,-6.7
2024/01/24 07:50:00, 8.9,-5.9
2024/01/24 08:00:00, 9.1,-5.6
2024/01/24 08:10:00, 9.0,-5.5
2024/01/24 08:20:00, 8.9,-5.2
2024/01/24 08:30:00, 8.9,-4.9
2024/01/24 08:40:00, 9.3,-5.3
2024/01/24 08:50:00, 9.6,-4.3
2024/01/24 09:00:00, 9.6,-4.6
2024/01/24 09:10:00, 9.5,-4.8
2024/01/24 09:20:00, 9.4,-4.0
2024/01/24 09:30:00, 9.4,-3.6
2024/01/24 09:40:00, 9.2,-3.9
2024/01/24 09:50:00, 9.2,-3.8
2024/01/24 10:00:00, 9.5,-3.8
2024/01/24 10:10:00, 9.6,-4.1
2024/01/24 10:20:00, 9.6,-3.1
2024/01/24 10:30:00, 9.6,-3.3
2024/01/24 10:40:00, 9.8,-3.3
2024/01/24 10:50:00, 9.9,-3.2
2024/01/24 11:00:00, 9.8,-3.2
2024/01/24 11:10:00, 9.9,-2.6
2024/01/24 11:20:00,10.0,-3.4
2024/01/24 11:30:00,10.0,-2.6
2024/01/24 11:40:00,10.1,-3.6
2024/01/24 11:50:00,10.5,-2.1
2024/01/24 12:00:00,10.7,-2.3
2024/01/24 12:10:00,11.1,-2.5
2024/01/24 12:20:00,11.1,-2.8
2024/01/24 12:30:00,11.0,-2.6
2024/01/24 12:40:00,11.1,-2.1
2024/01/24 12:50:00,11.1,-1.9
2024/01/24 13:00:00,11.1,-2.6
2024/01/24 13:10:00,10.8,-2.9
2024/01/24 13:20:00,10.7,-2.6
2024/01/24 13:30:00,10.7,-3.1
2024/01/24 13:40:00,10.8,-2.6
2024/01/24 13:50:00,10.8,-2.4
2024/01/24 14:00:00,10.8,-2.2
2024/01/24 14:10:00,10.8,-2.2
2024/01/24 14:20:00,10.7,-3.0
2024/01/24 14:30:00,10.6,-3.6
2024/01/24 14:40:00,10.7,-3.6
2024/01/24 14:50:00,11.0,-4.2
2024/01/24 15:00:00,11.2,-3.9
2024/01/24 15:10:00,11.4,-4.0
2024/01/24 15:20:00,11.4,-4.2
2024/01/24 15:30:00,11.4,-3.8
2024/01/24 15:40:00,11.3,-4.1
2024/01/24 15:50:00,11.2,-3.9
2024/01/24 16:00:00,11.1,-4.0
2024/01/24 16:10:00,11.1,-3.9
2024/01/24 16:20:00,11.1,-3.9
2024/01/24 16:30:00,11.1,-4.3
2024/01/24 16:40:00,11.1,-4.6
2024/01/24 16:50:00,11.0,-5.0
2024/01/24 17:00:00,10.9,-5.1
2024/01/24 17:10:00,10.8,-5.0
2024/01/24 17:20:00,10.6,-5.2
2024/01/24 17:30:00,10.6,-4.9
2024/01/24 17:40:00,10.6,-4.9
2024/01/24 17:50:00,10.6,-5.0
2024/01/24 18:00:00,10.6,-5.3
2024/01/24 18:10:00,10.8,-4.7
2024/01/24 18:20:00,11.0,-5.0
2024/01/24 18:30:00,11.1,-5.1
2024/01/24 18:40:00,11.0,-5.3
2024/01/24 18:50:00,11.2,-4.9
2024/01/24 19:00:00,11.5,-4.9
2024/01/24 19:10:00,11.6,-4.8
2024/01/24 19:20:00,11.7,-4.6
2024/01/24 19:30:00,11.7,-4.5
2024/01/24 19:40:00,11.7,-4.7
2024/01/24 19:50:00,11.8,-4.6
2024/01/24 20:00:00,11.9,-4.5
2024/01/24 20:10:00,11.9,-4.7
2024/01/24 20:20:00,11.8,-4.8
2024/01/24 20:30:00,11.8,-4.5
2024/01/24 20:40:00,12.4,-4.8
2024/01/24 20:50:00,13.3,-4.6
2024/01/24 21:00:00,13.9,-4.7
2024/01/24 21:10:00,14.0,-4.6
2024/01/24 21:20:00,14.3,-4.2
2024/01/24 21:30:00,14.9,-4.6
2024/01/24 21:40:00,15.0,-4.2
2024/01/24 21:50:00,15.0,-4.4
2024/01/24 22:00:00,15.0,-4.3
2024/01/24 22:10:00,15.4,-4.2
2024/01/24 22:20:00,15.8,-4.3
2024/01/24 22:30:00,16.2,-4.2
2024/01/24 22:40:00,16.9,-4.2
2024/01/24 22:50:00,17.6,-4.0
2024/01/24 23:00:00,17.6,-4.2
2024/01/24 23:10:00,17.9,-4.1
2024/01/24 23:20:00,18.4,-4.3
2024/01/24 23:30:00,18.7,-4.2
2024/01/24 23:40:00,19.1,-4.3
2024/01/24 23:50:00,19.5,-3.9
